Location: Monfort
(47.1967°N, 0.2115°W)
Time: 10:58:09
(UTC+00:00)

ADEOS Rocket - Pass Details

Date: 24 October 2020
Orbit: 859 x 1306 km, 98.7° (Epoch: 27 November)

Event Time Altitude Azimuth Distance (km) Brightness Sun altitude
Rises 17:17:20 0° 13° (NNE) 3,661 5.7 -4.2°
Reaches altitude 10° 17:19:41 10° 13° (NNE) 2,763 5.1 -4.6°
Maximum altitude 17:25:56 82° 287° (WNW) 1,086 3.4 -5.7°
Drops below altitude 10° 17:32:53 10° 201° (SSW) 3,058 6.0 -6.8°
Sets 17:35:36 0° 200° (SSW) 4,075 6.7 -7.3°
